CZ-7 R/B

Last updated on Tue Jul 29 2025 00:02:06 GMT+0000 (Coordinated Universal Time)

1 64787U 25149B 25209.80980395 .05141545 82131-5 16106-3 0 9995 2 64787 41.4555 121.0303 0029471 283.7292 133.8854 16.41390251 2257

Satellite not in orbit

CZ-7 R/B